[Date Prev][Date Next][Thread Prev][Thread Next] - [Date Index][Thread Index][Author Index]
2 Line ISS Keps 4-13
- Subject: [sarex] 2 Line ISS Keps 4-13
- From: "Dave Larsen PhD" <doc@xxxxxxxxxxx>
- Date: Tue, 12 Apr 2005 19:49:38 -0700
ISS
1 25544U 98067A 05102.95757065 .00017773 00000-0 14308-3 0 2304
2 25544 051.6462 234.7911 0006609 006.9860 095.8567 15.70999634365426
----
Via the sarex mailing list at AMSAT.ORG courtesy of AMSAT-NA.
To unsubscribe, send "unsubscribe sarex" to Majordomo@amsat.org
AMSAT Home